When you browse on this site, cookies collect data to enhance your experience and personalize the content and advertising you see.
Visit our Privacy Policy to learn more. By continuing to use the site, you agree to this use of cookies and data.
  • In France
  • List of Countries
  • For 7 days
  • Water Temperature
  • Weather Map
  • Weather Widgets
  • user-avatar
    Login

    Hourly Weather San Miguel de Tucumán

    Today, 21 February, Friday

    Time Temperature Precipitation Wind Pressure Humidity
    00:00 +23°C° 0 mm 1 mps 724 mmHg 59%
    01:00 +23°C° 0 mm 1 mps 724 mmHg 59%
    02:00 +23°C° 0 mm 1 mps 725 mmHg 60%
    09:00 +21°C° 0 mm 1 mps 727 mmHg 67%
    10:00 +21°C° 0 mm 1 mps 727 mmHg 64%
    11:00 +21°C° 0 mm 1 mps 727 mmHg 61%
    12:00 +21°C° 0 mm 1 mps 727 mmHg 58%
    13:00 +21°C° 0 mm 1 mps 726 mmHg 56%
    14:00 +21°C° 0 mm 1 mps 726 mmHg 53%
    15:00 +21°C° 0 mm 1 mps 726 mmHg 51%
    16:00 +22°C° 0 mm 1 mps 725 mmHg 50%
    17:00 +22°C° 0 mm 1 mps 725 mmHg 49%
    18:00 +21°C° 0 mm 1 mps 725 mmHg 51%
    19:00 +20°C° 0 mm 1 mps 726 mmHg 54%
    20:00 +19°C° 0 mm 1 mps 726 mmHg 56%
    21:00 +20°C° 0 mm 1 mps 727 mmHg 56%
    22:00 +20°C° 0 mm 1 mps 727 mmHg 56%
    23:00 +18°C° 0 mm 0 mps 727 mmHg 57%

    Tomorrow, 22 February, Saturday

    Time Temperature Precipitation Wind Pressure Humidity
    00:00 +18°C° 0 mm 0 mps 727 mmHg 57%
    01:00 +18°C° 0 mm 0 mps 727 mmHg 58%
    02:00 +18°C° 0 mm 0 mps 726 mmHg 58%
    03:00 +18°C° 0 mm 0 mps 726 mmHg 58%
    04:00 +18°C° 0 mm 0 mps 726 mmHg 58%
    05:00 +18°C° 0 mm 0 mps 726 mmHg 58%
    06:00 +18°C° 0 mm 0 mps 726 mmHg 58%
    07:00 +19°C° 0 mm 0 mps 726 mmHg 58%
    08:00 +20°C° 0 mm 0 mps 726 mmHg 58%
    09:00 +23°C° 0 mm 1 mps 726 mmHg 54%
    10:00 +24°C° 0 mm 1 mps 726 mmHg 51%
    11:00 +25°C° 0 mm 2 mps 726 mmHg 47%
    12:00 +26°C° 0 mm 2 mps 725 mmHg 46%
    13:00 +26°C° 0 mm 2 mps 724 mmHg 45%
    14:00 +27°C° 0 mm 2 mps 723 mmHg 44%
    15:00 +27°C° 0 mm 2 mps 723 mmHg 46%
    16:00 +26°C° 0 mm 2 mps 723 mmHg 48%
    17:00 +26°C° 0 mm 2 mps 722 mmHg 51%
    18:00 +24°C° 0 mm 2 mps 722 mmHg 55%
    19:00 +23°C° 0 mm 1 mps 722 mmHg 59%
    20:00 +21°C° 0 mm 1 mps 722 mmHg 63%
    21:00 +21°C° 0 mm 1 mps 722 mmHg 64%
    22:00 +20°C° 0 mm 1 mps 723 mmHg 66%
    23:00 +20°C° 0 mm 1 mps 723 mmHg 68%

    Day after tomorrow, 23 February, Sunday

    Time Temperature Precipitation Wind Pressure Humidity
    00:00 +19°C° 0 mm 1 mps 722 mmHg 69%
    01:00 +19°C° 0 mm 1 mps 722 mmHg 70%
    02:00 +18°C° 0 mm 1 mps 721 mmHg 72%
    03:00 +18°C° 0 mm 1 mps 721 mmHg 73%
    04:00 +18°C° 0 mm 1 mps 721 mmHg 74%
    05:00 +18°C° 0 mm 1 mps 721 mmHg 74%
    06:00 +19°C° 0 mm 1 mps 721 mmHg 71%
    07:00 +20°C° 0 mm 1 mps 721 mmHg 68%
    08:00 +22°C° 0 mm 1 mps 721 mmHg 65%
    09:00 +23°C° 0 mm 1 mps 722 mmHg 60%
    10:00 +25°C° 0 mm 1 mps 722 mmHg 55%
    11:00 +27°C° 0 mm 2 mps 722 mmHg 50%
    12:00 +28°C° 0 mm 2 mps 721 mmHg 48%
    13:00 +29°C° 0 mm 2 mps 720 mmHg 47%
    14:00 +30°C° 0 mm 2 mps 720 mmHg 46%
    15:00 +29°C° 0 mm 2 mps 719 mmHg 47%
    16:00 +29°C° 0 mm 2 mps 718 mmHg 49%
    17:00 +29°C° 0 mm 2 mps 718 mmHg 51%
    18:00 +27°C° 0 mm 2 mps 718 mmHg 57%
    19:00 +25°C° 0 mm 2 mps 718 mmHg 63%
    20:00 +23°C° 0 mm 1 mps 718 mmHg 69%
    21:00 +23°C° 0 mm 1 mps 718 mmHg 71%
    22:00 +22°C° 0 mm 1 mps 718 mmHg 73%
    23:00 +21°C° 0 mm 1 mps 718 mmHg 75%

    24 February, Monday

    Time Temperature Precipitation Wind Pressure Humidity
    00:00 +21°C° 0 mm 1 mps 718 mmHg 76%
    01:00 +21°C° 0 mm 1 mps 717 mmHg 76%
    02:00 +20°C° 0 mm 1 mps 717 mmHg 77%
    03:00 +20°C° 0 mm 1 mps 717 mmHg 77%
    04:00 +20°C° 0 mm 1 mps 716 mmHg 77%
    05:00 +20°C° 0 mm 1 mps 716 mmHg 77%
    06:00 +21°C° 0 mm 1 mps 716 mmHg 74%
    07:00 +22°C° 0 mm 1 mps 716 mmHg 70%
    08:00 +24°C° 0 mm 1 mps 716 mmHg 66%
    09:00 +26°C° 0 mm 1 mps 716 mmHg 60%
    10:00 +28°C° 0 mm 1 mps 716 mmHg 54%
    11:00 +30°C° 0 mm 2 mps 716 mmHg 49%
    12:00 +31°C° 0 mm 2 mps 715 mmHg 46%
    13:00 +34°C° 0 mm 2 mps 714 mmHg 44%
    14:00 +35°C° 0 mm 2 mps 714 mmHg 42%
    15:00 +34°C° 0 mm 2 mps 713 mmHg 44%
    16:00 +34°C° 0 mm 2 mps 712 mmHg 46%
    17:00 +34°C° 0 mm 2 mps 712 mmHg 47%
    18:00 +30°C° 0 mm 2 mps 712 mmHg 54%
    19:00 +28°C° 0 mm 2 mps 712 mmHg 61%
    20:00 +26°C° 0 mm 1 mps 713 mmHg 68%
    21:00 +25°C° 0 mm 1 mps 713 mmHg 69%
    22:00 +25°C° 0 mm 1 mps 714 mmHg 70%
    23:00 +24°C° 0 mm 1 mps 714 mmHg 71%

    25 February, Tuesday

    Time Temperature Precipitation Wind Pressure Humidity
    00:00 +24°C° 0 mm 1 mps 714 mmHg 71%
    01:00 +24°C° 0 mm 1 mps 714 mmHg 70%
    02:00 +23°C° 0 mm 1 mps 714 mmHg 70%
    03:00 +23°C° 0 mm 1 mps 714 mmHg 71%
    04:00 +23°C° 0 mm 1 mps 714 mmHg 72%
    05:00 +23°C° 0 mm 1 mps 714 mmHg 72%
    06:00 +24°C° 0 mm 1 mps 715 mmHg 71%
    07:00 +25°C° 0 mm 1 mps 716 mmHg 70%
    08:00 +26°C° 0 mm 2 mps 716 mmHg 68%
    09:00 +28°C° 0 mm 2 mps 717 mmHg 62%
    10:00 +30°C° 0 mm 2 mps 717 mmHg 56%
    11:00 +33°C° 0 mm 3 mps 717 mmHg 51%
    12:00 +33°C° 0.2 mm 3 mps 717 mmHg 49%
    13:00 +34°C° 0.2 mm 3 mps 716 mmHg 47%
    14:00 +35°C° 0.2 mm 3 mps 716 mmHg 46%
    15:00 +34°C° 0.3 mm 3 mps 716 mmHg 49%
    16:00 +33°C° 0.3 mm 3 mps 716 mmHg 52%
    17:00 +33°C° 0.3 mm 3 mps 715 mmHg 55%
    18:00 +29°C° 0.5 mm 3 mps 716 mmHg 63%
    19:00 +27°C° 0.5 mm 3 mps 717 mmHg 71%
    20:00 +24°C° 0.5 mm 3 mps 718 mmHg 80%
    21:00 +24°C° 0.3 mm 2 mps 719 mmHg 82%
    22:00 +23°C° 0.3 mm 2 mps 720 mmHg 84%
    23:00 +22°C° 0.3 mm 1 mps 721 mmHg 86%

    26 February, Wednesday

    Time Temperature Precipitation Wind Pressure Humidity
    00:00 +22°C° 0.5 mm 1 mps 721 mmHg 88%
    01:00 +21°C° 0.5 mm 1 mps 721 mmHg 90%
    02:00 +20°C° 0.5 mm 2 mps 720 mmHg 93%
    03:00 +21°C° 0.1 mm 1 mps 720 mmHg 92%
    04:00 +21°C° 0.1 mm 1 mps 720 mmHg 92%
    05:00 +20°C° 0.1 mm 1 mps 720 mmHg 91%
    06:00 +22°C° 0 mm 1 mps 721 mmHg 87%
    07:00 +23°C° 0 mm 1 mps 721 mmHg 83%
    08:00 +24°C° 0 mm 1 mps 722 mmHg 79%
    09:00 +26°C° 0 mm 1 mps 722 mmHg 69%
    10:00 +28°C° 0 mm 1 mps 722 mmHg 58%
    11:00 +30°C° 0 mm 2 mps 722 mmHg 48%
    12:00 +31°C° 0 mm 2 mps 721 mmHg 47%
    13:00 +32°C° 0 mm 2 mps 721 mmHg 45%
    14:00 +32°C° 0 mm 2 mps 720 mmHg 44%
    15:00 +32°C° 0 mm 2 mps 719 mmHg 45%
    16:00 +31°C° 0 mm 2 mps 719 mmHg 47%
    17:00 +31°C° 0 mm 2 mps 718 mmHg 48%
    18:00 +29°C° 0 mm 2 mps 718 mmHg 53%
    19:00 +27°C° 0 mm 1 mps 718 mmHg 59%
    20:00 +25°C° 0 mm 1 mps 718 mmHg 64%
    21:00 +25°C° 0 mm 1 mps 719 mmHg 64%
    22:00 +24°C° 0 mm 1 mps 720 mmHg 65%
    23:00 +24°C° 0 mm 1 mps 720 mmHg 65%
    Show more